Regional Weather Roundup
Issued by NWS Midland/Odessa, TX

Skip options and go directly to product.
Home | Oldest Version | Next Version | Current Version | All | Text Only | Save Text | Print | Product List | Glossary On

Skip product version selection by date and time.   
023
ASUS44 KMAF 251801
RWRMAF
MIDLAND AREA WEATHER ROUNDUP
NATIONAL WEATHER SERVICE MIDLAND TX
1200 PM CST SUN JAN 25 2015

...IN SOUTHWEST TEXAS AND SOUTHEAST NEW MEXICO...

CITY           SKY/WX    TMP DP  RH WIND       PRES   REMARKS
ALPINE         PTSUNNY   51  23  33 NE12      30.37R
ANDREWS        FAIR      53  25  34 N12       30.28S
ARTESIA        MOSUNNY   52  27  37 NW7       30.34F
BIG SPRING     MOSUNNY   56  31  38 NW5       30.26S
CARLSBAD       MOSUNNY   54  21  27 NW5       30.32S
DRYDEN           N/A     64  32  30 N9        30.25R
FORT STOCKTON  SUNNY     54  31  41 VRB3      30.30R
GUAD PASS      NOT AVBL
HOBBS          SUNNY     54  23  30 N14       30.30R
MARFA          PTSUNNY   50  21  32 NE20G26   30.31R
MIDLAND AIRPK  MOSUNNY   56  25  30 N7        30.28R
MIDLAND INTL   MOSUNNY   58  24  27 N12       30.26R
ODESSA         MOSUNNY   55  26  32 NE10      30.27S
PECOS          SUNNY     53  33  46 W6        30.32R
PRESIDIO       FAIR      51  31  47 CALM      30.27F
SEMINOLE       MOSUNNY   53  23  31 N10       30.29R
SNYDER         SUNNY    N/A N/A N/A N14G21    30.22R
WINK           MOSUNNY   61  19  19 NE15      30.28S
$$
...OTHER STATIONS IN TEXAS...

CITY           SKY/WX    TMP DP  RH WIND       PRES   REMARKS
ABILENE        SUNNY     58  31  35 N10       30.19R
AMARILLO       SUNNY     44  30  57 NW12      30.22S WCI  38
AUSTIN         PTSUNNY   65  41  41 N14       30.09S
BROWNSVILLE    CLOUDY    64  49  57 VRB5      30.18F
CORPUS CHRISTI PTSUNNY   65  50  58 SW16      30.17R
DALLAS FTW     MOSUNNY   62  30  29 NW26G37   30.02F
DEL RIO        CLOUDY    62  34  35 N15       30.22R
EL PASO        PTSUNNY   53  24  32 N10       30.29R
HOUSTON INT    MOSUNNY   64  40  41 W9        30.04F
LUBBOCK        MOSUNNY   54  25  32 N17       30.24R
SAN ANGELO     SUNNY     61  31  32 N9        30.20S
SAN ANTONIO    PTSUNNY   66  39  37 N3        30.13R
WACO           SUNNY     61  38  42 NW15      30.08S
WICHITA FALLS  NOT AVBL
$$
...OTHER LOCATIONS IN NEW MEXICO...

CITY           SKY/WX    TMP DP  RH WIND       PRES   REMARKS
ALAMAGORDO     MOSUNNY   46  27  46 S5        30.31S
ALBUQUERQUE    MOSUNNY   44  19  36 NW6       30.34R
CANNON AFB     SUNNY     42  29  60 W8        30.28R WCI  37
CLOVIS         SUNNY     46  28  49 NW9       30.28R
HOLLOMAN AFB   MOSUNNY   45  29  54 SW2       30.29S
ROSWELL        SUNNY     51  27  39 N6        30.33S
RUIDOSO        SUNNY     39  19  45 SE10      30.35F WCI  32
SANTA FE       SUNNY     42  18  37 N12       30.29F WCI  36
TRUTH OR CONSE MOSUNNY   46  22  38 NE5       30.31S
TUCUMCARI      SUNNY     45  30  55 CALM      30.27R
$$

USA.gov is the U.S. government's official web portal to all federal, state and local government web resources and services.